Temperature
17 17 17 17 16 16 16 16 16 16 16 15 15 15 15 15 15 15 15 14 14 14 14 14 14 14 14 14 14 14 14 14 14 14 14 14 14 14 14 14 14 14 14
17 17 17 16 16 16 16 16 16 16 15 15 15 15 15 15 14 14 14 14 14 14 14 14 14 14 14 14 14 14 14 14 13 13 13 13 13 13 13 13 13 13 13
17 17 16 16 16 16 16 16 15 15 15 15 15 15 14 14 14 14 14 14 14 14 14 14 14 14 14 14 14 13 13 13 13 13 13 13 13 13 13 13 13 13 13
17 17 16 16 16 16 16 15 15 15 15 15 15 14 14 14 14 14 14 14 14 13 13 13 13 13 13 13 13 13 13 13 13 12 13 13 13 13 13 13 13 13 13
17 17 17 16 16 15 15 15 15 15 15 15 14 14 14 14 14 13 13 13 13 13 13 13 13 13 13 13 13 13 12 12 12 12 12 12 12 12 12 12 12 12 12
17 17 17 16 16 15 15 15 15 15 14 14 14 14 14 13 13 13 13 13 13 13 13 13 13 13 13 12 12 12 12 12 12 12 12 12 12 11 11 11 11 11 11
17 17 16 16 16 15 15 15 15 14 14 14 14 14 13 13 13 13 13 13 13 13 12 12 12 12 12 12 12 12 12 12 11 11 11 11 11 11 11 11 11 11 11
17 16 16 16 15 15 15 15 14 14 14 14 13 13 13 13 13 12 12 12 12 12 12 12 12 12 12 12 12 12 12 11 11 11 11 11 11 11 11 11 11 11 11
17 16 16 15 15 15 15 14 14 14 14 13 13 13 13 12 12 12 12 12 12 12 12 12 11 11 11 11 11 11 11 11 11 11 11 11 11 11 10 10 10 10 10
16 16 16 15 15 15 14 14 14 13 13 13 13 13 13 12 12 12 12 12 12 11 11 11 11 11 11 11 11 11 11 11 11 10 10 10 10 10 10 10 10 10 10
16 16 15 15 15 14 14 14 13 13 13 13 13 13 12 12 12 12 12 12 11 11 11 11 11 11 11 11 11 10 10 10 10 10 10 10 10 10 10 10 10 10 10
15 15 15 15 14 14 14 13 13 13 13 13 13 12 12 12 12 12 11 11 11 11 11 11 10 10 10 10 10 10 10 10 10 10 10 10 10 10 10 10 10 10 10
15 15 15 14 14 14 13 13 13 13 13 12 12 12 12 12 12 12 11 11 11 11 11 10 10 10 10 10 10 10 10 10 10 10 10 10 10 10 9 9 9 9 9
15 15 14 14 14 13 13 13 13 13 13 12 12 12 12 12 12 11 11 11 11 10 10 10 10 10 10 10 10 10 10 10 10 10 10 10 9 9 9 9 9 9 9
14 14 14 14 14 13 13 13 13 13 13 12 12 12 12 12 11 11 11 11 11 10 10 10 10 10 10 10 10 10 10 9 9 9 9 9 9 9 9 9 9 9 9
14 14 14 14 13 13 13 13 13 12 12 12 12 12 12 11 11 11 11 10 10 10 10 10 9 9 9 9 9 9 9 9 9 9 9 9 9 9 9 9 9 8 8
14 14 14 13 13 13 13 13 12 12 12 12 12 11 11 11 11 10 10 10 10 10 10 9 9 9 9 9 9 9 9 9 9 9 9 9 9 9 9 8 8 8 8
14 14 13 13 13 13 13 12 12 12 12 12 11 11 11 11 11 10 10 10 10 9 9 9 9 9 9 9 9 9 8 8 8 8 8 8 8 8 8 8 8 8 8
14 13 13 13 13 13 12 12 12 12 11 11 11 11 11 11 10 10 10 10 10 9 9 9 9 9 8 8 8 8 8 8 8 8 8 8 8 8 8 8 8 7 7
13 13 13 13 12 12 12 12 12 11 11 11 11 11 10 10 10 10 10 10 9 9 9 9 9 8 8 8 8 8 8 8 8 8 8 8 8 8 8 7 7 7 7
13 13 13 12 12 12 12 12 11 11 11 11 11 10 10 10 10 10 10 9 9 9 9 9 9 8 8 8 8 8 8 8 8 8 8 7 7 7 7 7 7 7 7
13 13 12 12 12 12 11 11 11 11 11 10 10 10 10 10 10 10 9 9 9 9 9 9 8 8 8 8 8 7 7 7 7 7 7 7 7 7 7 7 7 7 7
12 12 12 12 11 11 11 11 11 11 10 10 10 10 10 10 10 9 9 9 9 9 8 8 8 8 8 8 7 7 7 7 7 7 7 7 7 7 7 7 7 6 6
12 12 12 12 11 11 11 11 11 10 10 10 10 10 10 10 9 9 9 9 9 9 8 8 8 8 8 7 7 7 7 7 7 7 7 7 7 7 7 6 6 6 6
12 11 11 11 11 11 11 11 10 10 10 10 10 10 9 9 9 9 9 9 9 8 8 8 8 8 8 7 7 7 7 7 7 7 6 6 6 6 6 6 6 6 6
12 11 11 11 11 11 10 10 10 10 10 10 9 9 9 9 9 8 8 8 8 8 8 8 8 7 7 7 7 7 7 6 6 6 6 6 6 6 6 6 6 6 6
Wind_Speed
2 2 1 1 0 0 0 1 1 1 0 0 0 1 2 2 2 1 1 1 0 1 1 0 1 1 1 1 1 1 2 2 3 3 2 3 3 3 3 2 3 3 4
2 2 1 0 0 0 1 2 1 1 1 1 0 1 2 2 2 2 1 1 1 1 1 1 1 1 1 0 0 1 1 1 2 3 2 2 2 3 3 3 2 2 3
3 2 1 0 0 1 2 2 1 1 1 1 1 1 1 2 2 1 1 1 1 1 1 1 2 1 1 1 1 1 1 1 1 2 2 2 2 2 2 2 2 2 2
4 3 1 0 1 2 2 2 1 1 0 1 1 1 1 1 1 1 1 1 1 2 2 1 2 1 2 1 1 1 1 1 0 1 1 2 2 2 2 2 2 3 3
3 3 2 2 1 1 2 2 1 1 1 1 1 1 1 1 1 1 1 1 2 2 3 2 2 1 2 0 0 1 0 0 0 0 1 1 2 2 2 1 2 3 3
3 3 2 1 1 1 2 1 1 1 1 1 1 1 2 2 3 3 2 2 2 2 3 3 2 2 3 3 2 1 1 1 1 1 1 2 3 2 2 2 2 2 2
2 2 1 1 1 2 1 1 1 1 1 1 1 1 1 2 3 3 2 1 1 1 2 2 2 3 3 3 3 3 2 1 1 2 2 3 3 3 2 2 2 2 3
3 2 1 1 1 1 0 0 1 0 0 0 1 1 1 2 3 3 3 2 1 1 1 1 2 3 3 3 2 3 3 3 2 2 3 4 4 3 3 2 2 2 2
3 2 2 2 1 1 1 1 1 0 0 1 1 1 1 2 3 3 2 1 1 2 2 2 2 2 4 3 1 2 3 4 3 2 2 3 4 4 2 1 0 0 2
3 3 3 2 2 2 2 1 1 1 1 1 1 1 1 2 2 2 1 1 1 2 2 3 3 3 3 2 1 1 2 4 4 4 4 3 3 3 2 2 2 2 1
3 2 2 2 2 2 2 1 1 1 1 1 1 1 1 2 2 2 1 1 1 1 2 3 3 4 3 3 2 2 4 4 3 3 3 3 3 2 2 2 2 3 3
2 2 2 2 1 1 1 1 1 1 1 1 1 2 1 2 2 2 2 1 1 1 2 2 3 4 4 4 3 3 4 3 2 2 2 3 2 2 2 2 2 3 3
2 2 2 1 1 1 1 1 1 1 1 2 1 2 2 2 2 2 2 2 1 1 2 2 3 4 4 3 3 4 3 2 1 2 2 3 3 3 2 2 1 1 2
2 2 1 1 1 1 1 1 2 2 2 2 2 2 2 2 2 2 2 2 2 1 2 2 3 3 3 3 4 3 2 1 1 2 3 3 2 2 2 1 1 1 2
2 2 2 1 1 1 1 2 3 3 4 4 4 4 3 3 4 4 3 2 2 2 1 1 2 3 3 4 4 4 3 2 1 2 2 2 2 2 2 2 1 1 1
3 2 2 2 1 1 1 2 2 3 4 5 5 5 4 5 5 4 3 2 2 1 1 0 2 2 2 3 4 4 3 3 3 2 2 2 3 3 2 2 1 1 1
3 3 2 2 2 2 2 2 2 3 2 3 4 4 5 4 4 3 2 1 1 2 1 2 2 3 3 3 4 4 4 4 3 3 3 3 3 2 2 2 1 1 2
3 3 3 3 3 3 3 3 2 2 2 2 2 3 4 4 3 3 2 1 0 0 1 2 3 3 4 4 4 4 4 4 3 3 3 3 3 3 2 2 2 2 2
3 2 2 2 2 2 2 2 2 2 2 2 2 2 2 2 1 1 2 1 3 3 3 3 4 4 4 4 4 4 4 4 4 3 3 3 3 3 3 3 3 3 3
2 3 2 2 1 1 2 2 2 2 2 3 3 3 1 1 1 2 2 3 3 4 4 4 4 4 4 4 4 4 4 4 4 4 4 3 3 3 3 4 3 3 3
2 2 2 1 2 2 2 2 2 2 3 3 4 3 3 3 3 3 3 3 4 4 4 4 4 4 4 4 4 4 5 4 4 4 4 3 3 3 3 3 3 3 3
2 2 2 2 2 2 2 2 2 2 3 4 3 3 3 2 3 3 4 4 4 4 4 4 4 4 4 4 4 4 4 4 4 4 4 4 4 3 3 3 3 3 3
3 2 2 2 2 2 2 1 2 2 3 3 3 3 2 3 3 4 4 4 4 4 4 4 4 4 4 4 4 4 4 5 5 5 4 4 4 4 3 3 3 3 3
3 3 3 2 2 2 2 2 2 2 3 3 3 3 3 3 4 4 5 4 4 4 4 4 4 5 5 4 3 4 4 5 5 4 5 5 4 4 3 3 3 4 4
3 3 3 3 3 3 3 3 3 2 3 3 3 3 3 3 4 4 4 4 4 3 4 4 3 4 5 5 4 4 5 5 4 4 3 3 4 3 3 3 3 3 3
3 3 3 3 3 3 3 3 3 3 3 3 4 4 4 4 4 4 4 3 3 3 3 3 4 5 5 4 5 5 4 4 3 3 2 2 2 2 2 2 2 2 2
Wind_Direction
151 157 150 157 171 151 243 292 307 312 315 349 318 348 360 5 10 20 353 357 1 334 317 259 286 278 265 252 207 201 209 200 241 279 285 306 299 295 298 276 259 237 235
147 142 162 198 351 355 313 308 310 288 287 284 336 34 19 13 12 24 342 349 345 330 321 335 318 299 283 278 229 241 238 217 225 269 295 315 303 299 296 289 284 259 242
127 125 112 31 344 302 297 305 316 293 316 356 43 38 15 6 13 4 328 336 340 312 314 309 304 307 312 319 296 277 279 275 230 237 286 308 308 325 329 322 317 305 289
129 131 143 253 283 282 286 298 302 267 286 326 352 5 356 19 22 13 9 6 354 329 315 303 298 283 274 272 283 277 288 313 297 257 286 314 314 327 331 331 333 328 307
146 165 209 228 243 280 291 294 301 330 347 353 45 27 10 27 15 22 30 31 14 349 342 333 328 345 0 338 304 255 228 285 315 287 295 319 316 333 323 306 308 318 308
167 194 211 220 231 250 260 273 322 350 345 28 46 38 27 19 22 37 55 34 19 4 349 345 351 10 11 13 14 23 112 183 234 239 270 279 291 297 307 301 299 303 294
177 205 208 203 225 252 258 286 306 323 23 40 22 38 20 359 14 19 36 50 32 11 353 349 5 12 15 9 6 7 354 338 222 216 246 261 269 268 277 299 282 279 276
179 200 206 202 220 238 226 262 286 326 38 7 6 349 347 349 9 25 34 60 48 1 340 337 352 346 354 1 5 3 344 333 308 266 249 260 264 261 241 244 254 284 305
190 199 204 192 192 187 204 251 254 184 251 257 226 250 295 323 2 22 44 76 44 351 348 360 351 332 340 1 33 3 341 330 332 320 283 278 278 267 238 187 197 212 299
214 214 203 180 179 198 218 238 235 204 233 263 285 261 251 291 335 1 47 105 53 350 349 345 342 334 339 360 6 314 310 309 323 336 338 332 311 295 266 214 207 219 267
207 193 187 184 191 198 205 225 220 220 247 281 290 296 286 291 312 332 351 150 202 306 327 328 328 335 331 328 307 279 272 284 307 318 325 328 327 316 300 267 230 221 230
171 178 191 201 218 208 200 258 261 202 189 256 285 306 304 305 312 321 326 261 208 209 274 297 308 324 324 320 311 298 296 297 301 317 323 324 316 309 305 288 254 240 240
163 184 197 202 216 200 207 232 269 225 212 239 241 261 285 297 302 316 333 320 286 251 269 281 303 314 318 318 314 312 316 310 297 304 309 306 299 297 301 309 318 297 297
179 202 197 192 257 282 237 219 217 227 229 234 234 246 266 282 293 305 313 310 320 313 319 337 339 333 331 321 326 329 321 284 266 277 290 297 308 312 306 306 313 319 329
192 212 227 221 223 237 254 240 228 231 221 218 227 222 227 254 261 254 245 252 258 263 320 11 3 355 358 352 343 335 328 322 300 293 292 306 314 310 308 306 291 291 287
197 218 226 229 228 226 242 305 290 247 246 229 226 220 230 238 262 270 252 242 231 186 121 339 320 318 320 321 321 322 321 312 298 289 290 291 295 294 300 306 282 259 269
205 215 213 212 219 238 240 248 287 315 312 270 255 241 233 247 263 266 251 239 223 140 152 276 285 294 296 296 296 297 299 299 294 287 286 288 286 286 288 290 286 273 271
204 212 211 213 216 228 236 238 239 250 282 299 293 261 259 253 248 240 205 129 350 342 248 262 274 281 284 287 291 294 296 300 295 288 287 287 280 275 276 274 265 262 266
197 206 208 211 217 226 235 240 247 248 255 266 287 298 289 265 235 224 176 212 243 257 261 267 272 277 282 285 288 291 291 289 288 284 283 279 271 262 264 266 266 254 255
202 210 195 197 212 228 237 242 247 244 251 260 266 272 280 260 264 258 240 238 245 255 261 266 272 276 279 282 286 290 293 291 288 283 280 276 269 263 261 260 260 255 251
209 216 204 202 218 225 229 234 240 242 250 259 265 260 231 233 242 250 252 248 247 254 260 267 273 277 278 282 286 286 287 286 285 284 283 280 274 269 267 261 256 251 248
203 204 204 215 226 230 231 232 235 247 256 262 272 274 244 236 245 254 259 260 259 258 261 265 272 275 275 277 279 281 280 281 282 282 284 281 275 270 264 257 256 256 245
196 210 214 222 225 227 233 244 247 255 263 267 270 269 260 251 252 256 261 264 265 265 267 268 273 280 284 280 275 271 273 275 275 276 275 272 268 264 261 258 253 253 249
192 215 225 226 222 225 234 247 258 267 270 271 269 265 261 256 257 261 264 266 267 267 268 269 272 279 284 286 280 279 279 281 280 271 266 264 266 264 253 251 254 251 247
187 212 221 217 219 229 239 250 257 261 263 265 265 267 269 269 269 271 273 272 268 267 274 280 283 284 284 281 286 296 303 294 287 285 269 258 257 251 240 241 245 249 244
194 207 214 215 218 224 228 239 246 249 252 259 261 263 266 268 270 274 275 273 270 268 273 279 286 288 290 289 294 307 306 302 298 291 275 253 250 242 233 234 237 236 233
Height
1517 1517 1517 1517 1517 1516 1516 1515 1514 1514 1512 1511 1511 1510 1509 1508 1508 1508 1507 1507 1506 1506 1506 1505 1505 1505 1505 1504 1504 1503 1503 1503 1501 1500 1500 1500 1499 1499 1499 1498 1498 1498 1498
1516 1516 1517 1516 1516 1515 1515 1514 1514 1513 1512 1511 1510 1509 1508 1507 1507 1506 1506 1505 1504 1504 1504 1503 1503 1503 1502 1502 1501 1501 1500 1500 1499 1498 1497 1496 1496 1496 1496 1495 1495 1495 1495
1515 1515 1515 1515 1515 1514 1514 1513 1513 1512 1511 1510 1509 1508 1507 1506 1505 1505 1504 1503 1503 1502 1502 1501 1501 1500 1500 1499 1499 1498 1498 1497 1496 1495 1494 1493 1493 1493 1492 1492 1491 1491 1491
1513 1514 1513 1514 1513 1513 1513 1512 1511 1511 1510 1509 1508 1507 1506 1505 1504 1503 1503 1502 1501 1500 1500 1499 1499 1498 1497 1496 1496 1495 1495 1494 1494 1492 1491 1491 1490 1490 1489 1488 1488 1488 1488
1511 1512 1512 1512 1512 1512 1511 1511 1510 1509 1508 1508 1507 1506 1504 1503 1503 1502 1501 1500 1499 1499 1498 1497 1497 1496 1495 1494 1494 1493 1492 1492 1491 1490 1489 1488 1487 1487 1486 1485 1484 1484 1484
1510 1510 1510 1510 1510 1510 1510 1509 1508 1508 1507 1507 1505 1504 1503 1502 1501 1501 1500 1499 1498 1497 1496 1495 1495 1494 1493 1492 1492 1491 1491 1490 1488 1488 1486 1486 1485 1485 1484 1483 1482 1481 1481
1510 1510 1510 1509 1509 1509 1509 1508 1507 1507 1506 1505 1504 1503 1502 1501 1500 1499 1498 1497 1497 1495 1494 1494 1493 1492 1491 1490 1490 1489 1489 1488 1487 1486 1485 1484 1483 1482 1481 1480 1480 1479 1478
1508 1508 1508 1508 1508 1507 1507 1507 1506 1505 1505 1504 1503 1502 1501 1500 1499 1498 1497 1496 1495 1494 1493 1492 1491 1490 1490 1489 1488 1487 1486 1485 1485 1484 1483 1482 1482 1481 1480 1479 1477 1477 1476
1506 1506 1506 1506 1506 1505 1505 1505 1504 1504 1503 1502 1500 1500 1500 1499 1498 1497 1496 1495 1494 1493 1492 1491 1490 1489 1488 1487 1486 1485 1484 1483 1483 1482 1481 1480 1479 1478 1477 1476 1475 1474 1473
1504 1505 1505 1505 1504 1504 1503 1503 1502 1502 1501 1500 1499 1498 1498 1497 1496 1496 1495 1494 1492 1491 1490 1490 1489 1488 1487 1486 1484 1483 1482 1481 1480 1479 1478 1477 1476 1476 1475 1474 1473 1472 1471
1503 1503 1503 1503 1503 1502 1502 1501 1500 1499 1499 1498 1497 1497 1496 1496 1495 1494 1494 1492 1491 1490 1489 1488 1487 1486 1485 1484 1483 1481 1480 1479 1478 1477 1475 1474 1473 1473 1472 1471 1471 1471 1470
1501 1501 1501 1501 1501 1500 1500 1499 1498 1497 1497 1496 1496 1495 1494 1494 1493 1493 1492 1491 1490 1488 1487 1486 1486 1485 1483 1482 1481 1480 1479 1477 1476 1474 1473 1472 1471 1470 1469 1469 1468 1468 1468
1499 1499 1499 1499 1498 1498 1498 1497 1496 1495 1495 1494 1494 1493 1492 1492 1491 1491 1490 1489 1488 1487 1486 1485 1484 1483 1481 1480 1479 1477 1476 1474 1473 1472 1471 1469 1469 1468 1467 1466 1465 1465 1465
1497 1497 1497 1497 1496 1496 1496 1495 1494 1493 1492 1492 1491 1490 1490 1489 1489 1489 1488 1487 1486 1485 1484 1483 1482 1480 1479 1478 1476 1475 1474 1472 1471 1470 1468 1467 1466 1465 1465 1464 1463 1462 1462
1495 1495 1495 1495 1494 1494 1494 1493 1492 1491 1490 1490 1489 1488 1488 1487 1487 1486 1486 1485 1484 1483 1482 1480 1479 1478 1476 1475 1474 1472 1471 1470 1468 1467 1466 1465 1464 1463 1462 1461 1460 1460 1460
1493 1493 1493 1493 1493 1492 1491 1491 1490 1489 1488 1488 1487 1486 1485 1485 1485 1484 1483 1483 1482 1481 1479 1477 1476 1475 1474 1473 1471 1470 1469 1467 1466 1465 1464 1463 1462 1461 1459 1458 1458 1457 1457
1491 1491 1491 1491 1490 1490 1489 1488 1487 1487 1486 1485 1485 1484 1483 1483 1482 1482 1481 1481 1480 1478 1476 1475 1474 1473 1472 1471 1469 1468 1466 1465 1463 1462 1461 1460 1459 1458 1457 1456 1455 1455 1454
1488 1488 1488 1488 1488 1488 1487 1486 1485 1484 1483 1482 1482 1482 1481 1481 1480 1480 1479 1478 1477 1475 1474 1473 1472 1471 1470 1468 1467 1465 1463 1462 1461 1459 1458 1457 1456 1455 1454 1453 1452 1452 1451
1486 1486 1486 1486 1485 1485 1484 1483 1483 1482 1481 1480 1479 1479 1479 1478 1478 1477 1477 1475 1474 1472 1472 1471 1470 1469 1467 1466 1464 1462 1460 1459 1457 1456 1455 1454 1453 1452 1450 1450 1449 1448 1448
1484 1484 1483 1483 1483 1482 1481 1480 1480 1479 1478 1477 1477 1476 1476 1475 1474 1474 1473 1472 1471 1470 1469 1468 1467 1465 1464 1462 1461 1459 1457 1455 1454 1453 1451 1450 1449 1448 1447 1446 1445 1445 1444
1482 1482 1481 1481 1480 1479 1478 1478 1477 1476 1475 1475 1474 1474 1473 1472 1472 1471 1470 1469 1468 1467 1466 1465 1464 1462 1460 1459 1457 1455 1454 1452 1450 1449 1447 1446 1445 1444 1443 1442 1442 1441 1441
1480 1479 1478 1478 1478 1477 1476 1475 1475 1474 1473 1473 1472 1471 1471 1470 1469 1468 1467 1466 1465 1464 1463 1462 1460 1459 1457 1455 1453 1451 1450 1448 1447 1445 1444 1443 1441 1440 1440 1439 1438 1438 1438
1477 1476 1476 1476 1476 1475 1475 1474 1473 1472 1471 1471 1470 1469 1468 1467 1466 1465 1464 1463 1462 1461 1460 1458 1457 1455 1454 1452 1450 1448 1446 1445 1443 1442 1440 1439 1438 1437 1436 1436 1435 1435 1435
1474 1474 1473 1473 1473 1473 1472 1472 1471 1470 1469 1468 1468 1466 1465 1464 1463 1462 1461 1459 1458 1457 1456 1455 1454 1452 1450 1449 1447 1445 1443 1441 1440 1439 1437 1436 1434 1433 1433 1432 1432 1432 1432
1471 1470 1470 1470 1470 1470 1470 1469 1468 1468 1467 1466 1465 1464 1463 1461 1460 1458 1457 1456 1455 1454 1453 1452 1450 1449 1447 1445 1443 1441 1440 1438 1437 1435 1434 1432 1431 1430 1430 1429 1429 1430 1430
1468 1468 1468 1468 1468 1467 1467 1466 1465 1465 1464 1464 1463 1461 1460 1458 1457 1455 1454 1453 1452 1450 1449 1448 1447 1445 1443 1441 1439 1438 1436 1435 1434 1432 1431 1429 1428 1428 1427 1427 1427 1427 1427